Погода в Риебини

Латвия     56°20′28″N   26°48′01″E
темп.,
°C
ветер,
м/с
пор.,
м/с
влажн.,
%
обл.,
%
осадки,
мм/ч
давл.,
гПа
погр.,
м
5 марта, пт
пт523:00−3зсз26680 0.0 1010271
02:00−3з48670 0.0 1011613
05:00−3зсз596560 0.1 10111111
08:00−3ссз6107774 0.2 10121014
11:00−2ссз693667 0.1 10141677
14:00−1ссз6103244 0.1 10152318
17:00−1сз253899 0.0 1016816
20:00−2с2353100 0.0 1018804
6 марта, сб
сб623:00−3ссв2370100 0.1 1019603
02:00−4с356599 0.2 1021452
05:00−5сз366814 0.0 1021437
08:00−5зсз37677 0.0 1023451
11:00−2з46521 0.0 10221067
14:000зюз69461 0.0 10201438
17:000зюз71357100 0.0 10161404
20:00−1зюз81561100 0.0 10141270
7 марта, вс
вс723:00−1зюз91764100 0.0 10091304
02:000зюз91596100 0.4 10041039
05:00−2сз81480100 3.1 10031193
08:00−4сз5135583 3.2 10051414
11:00−2з8125720 0.0 10051900
14:00−1з7125860 0.6 10041655
17:00−2з81462100 0.6 10011758
20:00−3зсз91563100 1.1 10021487
8 марта, пн
пн823:00−5сз7137292 0.0 10041161
02:00−6сз6107795 0.1 10071165
05:00−7ссз387733 0.0 1009709
08:00−7ссз467417 0.0 1010580
11:00−5сз466933 0.0 1012957
14:00−5с576067 0.2 10141194
17:00−6с5865100 0.0 10151238
20:00−8с5974100 0.1 10181053
9 марта, вт
вт923:00−9с497483 0.0 1021833
02:00−10с377841 0.0 1023487
05:00−10ссз25840 0.0 1024216
08:00−10ссз35790 0.0 1026244
11:00−6сз34580 0.0 1026559
14:00−3зсз34470 0.0 1026899
17:00−3з36550 0.0 1026502
20:00−5зюз48713 0.0 1027279